FLOCK 3M-4

Last updated on Wed Feb 14 2018 16:20:55 GMT+0000 (Coordinated Universal Time)

1 42997U 17068L 18045.51832424 .00002998 00000-0 14782-3 0 9993 2 42997 97.3618 161.9067 0016094 213.6196 146.4019 15.18580704 16028
UTC large
Height (km)
Speed (km/s)
/
Latitude / Longitude
Inclination (degrees)
Orbital Period (minutes)
Azimuth
Elevation
Range (km)
Doppler Factor

Next 0 passes for location: London (51.5072 / 0.1276)

Sorry there are no passes over London.